Flag for Poland Weather past 2 weeks in Lódz, Poland

Now
61 °F

Overcast.


Feels Like: 61 °F
Forecast: 46 / 66 °F
Wind: 5 mph from West

Location: Lodz

Current Time: May 30, 2015 at 9:03:53 AM

Latest Report: May 30, 2015 at 8:00 AM


Visibility: 13 mi

Pressure: 29.82 "Hg

Humidity: 68%

Dew point: 51 °F

Location of LódzLocation

Historic Weather in Lódz — Graph

°F

Lódz temperature yesterday

Maximum temperature yesterday: 67 °F (at 7:00 PM)
Minimum temperature yesterday: 42 °F (at 4:00 AM)
Average temperature yesterday: 57 °F

Past Weeks' High & Low Weather Summary

 TemperatureHumidityPressure
High75 °F (May 19, 1:00 PM)96% (May 26, 3:00 AM)30.27 "Hg (May 26, 3:00 AM)
Low38 °F (May 16, 4:00 AM)32% (May 16, 5:00 PM)29.70 "Hg (May 19, 1:00 PM)
Average56 °F66%29.99 "Hg
* Reported May 15 8:00 AM — May 30 8:00 AM, Lódz, Weather by CustomWeather, © 2015

Note: Actual official high and low records may vary slightly from our data, if they occured in-between our weather recording intervals... More about our weather records

Advertising

Lódz weather history for previous 24 hours

 ConditionsComfort  
Time TempWeatherWind HumidityBarometerVisibility
8:00 AM
Sat, May 30
61 °FOvercast.5 mph68%29.82 "Hg12 mi
7:00 AM58 °FOvercast.3 mph73%29.82 "Hg12 mi
6:00 AM57 °FOvercast.2 mph75%29.81 "Hg12 mi
4:00 AM53 °FPassing clouds.2 mph82%29.82 "Hg10 mi
3:00 AM54 °FPassing clouds.1 mph80%29.83 "Hg10 mi
2:00 AM57 °FOvercast.1 mph76%29.83 "Hg9 mi
1:00 AM57 °FOvercast.2 mph75%29.84 "Hg10 mi
12:00 AM57 °FPassing clouds.2 mph74%29.85 "Hg10 mi
10:00 PM
Fri, May 29
60 °FPassing clouds.2 mph66%29.86 "Hg12 mi
9:00 PM60 °FOvercast.2 mph67%29.88 "Hg12 mi
8:00 PM65 °FOvercast.1 mph56%29.86 "Hg12 mi
7:00 PM67 °FOvercast.N/A46%29.87 "Hg12 mi
6:00 PM67 °FOvercast.1 mph48%29.87 "Hg12 mi
5:00 PM66 °FOvercast.1 mph53%29.89 "Hg12 mi
4:00 PM67 °FOvercast.2 mph50%29.90 "Hg12 mi
3:00 PM64 °FOvercast.2 mph53%29.91 "Hg12 mi
2:00 PM64 °FOvercast.2 mph55%29.92 "Hg12 mi
1:00 PM64 °FOvercast.5 mph52%29.93 "Hg12 mi
12:00 PM64 °FOvercast.5 mph51%29.93 "Hg12 mi
11:00 AM61 °FPartly sunny.2 mph56%29.94 "Hg12 mi
10:00 AM57 °FPartly sunny.3 mph62%29.95 "Hg12 mi
9:00 AM54 °FPartly sunny.5 mph66%29.94 "Hg12 mi
Weather by CustomWeather, © 2015

See weather overviewHow to use our weather pages